Date String (YYYY-MM-DD hh:mm:ss) UTC,Instrument flags,Ambient pressure (hPa),Sample flow (lpm),Bypass flow (lpm),Sample temperature (°C),Ambient temperature (°C),ASC tube jacket temperature (°C),LED temperature (°C),Box temperature (°C),Sample RH (%),Span deviation,Mass concentration (μg/m³),Mass concentration (μg/m³),Mass concentration (μg/m³)
DateTimeUTC,F1_M11,P_M11,Q1_M11,Q2_M11,T1_M11,T2_M11,T3_M11,T4_M11,T5_M11,U1_M11,ZSPAN_M11,X0_M11,X2_M11,X1_M11
2021-12-18 00:00:00,,0825.5,5.00,0.00,21.9,21.1,00.0,31.0,23.5,06.6,0000.0,0001.89,0000.43,0000.22
2021-12-18 00:01:00,,0825.6,5.00,0.00,21.9,21.1,00.0,31.0,23.5,06.6,0000.0,0001.86,0000.44,0000.23
2021-12-18 00:02:00,,0825.5,5.00,0.00,21.9,21.1,00.0,31.0,23.5,06.7,0000.0,0001.89,0000.43,0000.22
2021-12-18 00:03:00,,0825.6,4.99,0.00,21.9,21.1,00.0,31.0,23.5,06.6,0000.0,0001.82,0000.41,0000.22
2021-12-18 00:04:00,,0825.6,5.01,0.00,21.9,21.1,00.0,30.9,23.5,06.6,0000.0,0001.84,0000.41,0000.22
2021-12-18 00:05:00,,0825.6,5.00,0.00,21.9,21.7,00.0,31.0,23.7,06.6,0000.0,0001.86,0000.41,0000.22
2021-12-18 00:06:00,,0825.6,5.00,0.00,22.0,22.5,00.0,31.0,23.9,06.5,0000.0,0001.80,0000.41,0000.22
2021-12-18 00:07:00,,0825.5,4.99,0.00,22.2,23.0,00.0,31.0,24.2,06.4,0000.0,0001.17,0000.38,0000.22
2021-12-18 00:08:00,,0825.5,5.01,0.00,22.3,22.9,00.0,31.1,24.2,06.3,0000.0,0001.39,0000.38,0000.22
2021-12-18 00:09:00,,0825.5,5.00,0.00,22.3,22.7,00.0,31.1,24.1,06.3,0000.0,0001.48,0000.38,0000.22
2021-12-18 00:10:00,,0825.5,5.00,0.00,22.3,22.4,00.0,31.1,24.1,06.3,0000.0,0001.56,0000.41,0000.23
2021-12-18 00:11:00,,0825.5,4.99,0.00,22.3,22.2,00.0,31.1,24.0,06.3,0000.0,0001.55,0000.41,0000.23
2021-12-18 00:12:00,,0825.5,5.00,0.00,22.2,22.0,00.0,31.1,23.9,06.3,0000.0,0001.62,0000.40,0000.23
2021-12-18 00:13:00,,0825.5,4.99,0.00,22.2,21.9,00.0,31.1,23.9,06.3,0000.0,0001.52,0000.39,0000.23
2021-12-18 00:14:00,,0825.5,5.01,0.00,22.2,21.7,00.0,31.1,23.8,06.1,0000.0,0001.55,0000.39,0000.23
2021-12-18 00:15:00,,0825.5,4.98,0.00,22.2,21.6,00.0,31.1,23.8,06.1,0000.0,0001.54,0000.39,0000.23
2021-12-18 00:16:00,,0825.5,5.01,0.00,22.1,21.5,00.0,31.1,23.7,06.0,0000.0,0001.48,0000.37,0000.24
2021-12-18 00:17:00,,0825.4,4.99,0.00,22.1,21.4,00.0,31.1,23.7,06.0,0000.0,0001.48,0000.37,0000.24
2021-12-18 00:18:00,,0825.5,5.01,0.00,22.0,21.3,00.0,31.1,23.6,06.1,0000.0,0001.52,0000.39,0000.24
2021-12-18 00:19:00,,0825.5,4.98,0.00,22.0,21.2,00.0,31.1,23.6,06.1,0000.0,0000.98,0000.37,0000.24
2021-12-18 00:20:00,,0825.5,5.01,0.00,22.0,21.2,00.0,31.1,23.5,06.0,0000.0,0000.72,0000.35,0000.23
2021-12-18 00:21:00,,0825.5,5.00,0.00,21.9,21.1,00.0,31.1,23.5,06.1,0000.0,0000.64,0000.32,0000.22
2021-12-18 00:22:00,,0825.6,4.99,0.00,21.9,21.0,00.0,31.1,23.4,06.1,0000.0,0000.58,0000.30,0000.22
2021-12-18 00:23:00,,0825.5,4.99,0.00,21.9,21.0,00.0,31.0,23.4,06.1,0000.0,0000.48,0000.30,0000.22
2021-12-18 00:24:00,,0825.6,5.00,0.00,21.8,20.9,00.0,31.0,23.3,06.1,0000.0,0000.50,0000.30,0000.22
2021-12-18 00:25:00,,0825.6,4.99,0.00,21.8,21.3,00.0,31.0,23.4,06.2,0000.0,0000.45,0000.29,0000.22
2021-12-18 00:26:00,,0825.6,4.99,0.00,21.9,22.0,00.0,31.0,23.7,06.1,0000.0,0000.45,0000.29,0000.22
2021-12-18 00:27:00,,0825.6,5.00,0.00,22.1,22.8,00.0,31.1,24.0,06.1,0000.0,0000.56,0000.32,0000.22
2021-12-18 00:28:00,,0825.6,5.01,0.00,22.2,23.1,00.0,31.1,24.2,06.0,0000.0,0000.56,0000.32,0000.22
2021-12-18 00:29:00,,0825.7,4.99,0.00,22.3,22.9,00.0,31.1,24.2,06.0,0000.0,0000.55,0000.31,0000.22
2021-12-18 00:30:00,,0825.6,5.00,0.00,22.3,22.6,00.0,31.2,24.0,05.9,0000.0,0000.57,0000.32,0000.22
2021-12-18 00:31:00,,0825.6,5.01,0.00,22.2,22.2,00.0,31.2,23.9,05.9,0000.0,0000.59,0000.33,0000.22
2021-12-18 00:32:00,,0825.6,5.00,0.00,22.2,22.0,00.0,31.2,23.8,05.8,0000.0,0000.63,0000.35,0000.23
2021-12-18 00:33:00,,0825.6,5.00,0.00,22.1,21.8,00.0,31.2,23.8,05.8,0000.0,0000.65,0000.35,0000.23
2021-12-18 00:34:00,,0825.6,5.00,0.00,22.1,21.7,00.0,31.2,23.7,05.8,0000.0,0000.64,0000.35,0000.22
2021-12-18 00:35:00,,0825.6,5.01,0.00,22.1,21.6,00.0,31.1,23.7,05.8,0000.0,0000.69,0000.35,0000.22
2021-12-18 00:36:00,,0825.7,4.99,0.00,22.1,21.5,00.0,31.1,23.7,05.8,0000.0,0000.75,0000.37,0000.22
2021-12-18 00:37:00,,0825.6,5.00,0.00,22.1,21.4,00.0,31.1,23.6,05.8,0000.0,0000.75,0000.37,0000.22
2021-12-18 00:38:00,,0825.7,5.00,0.00,22.0,21.3,00.0,31.1,23.6,05.8,0000.0,0000.70,0000.36,0000.23
2021-12-18 00:39:00,,0825.6,5.01,0.00,22.0,21.3,00.0,31.1,23.5,05.8,0000.0,0000.76,0000.39,0000.23
2021-12-18 00:40:00,,0825.7,4.98,0.00,22.0,21.2,00.0,31.1,23.5,05.8,0000.0,0000.78,0000.39,0000.23
2021-12-18 00:41:00,,0825.7,5.02,0.00,22.0,21.1,00.0,31.1,23.5,05.8,0000.0,0000.75,0000.38,0000.22
2021-12-18 00:42:00,,0825.7,4.99,0.00,21.9,21.1,00.0,31.1,23.4,05.8,0000.0,0000.74,0000.37,0000.22
2021-12-18 00:43:00,,0825.7,5.01,0.00,21.9,21.0,00.0,31.0,23.4,05.8,0000.0,0000.69,0000.36,0000.22
2021-12-18 00:44:00,,0825.7,4.99,0.00,21.8,21.0,00.0,31.0,23.4,05.7,0000.0,0000.67,0000.35,0000.21
2021-12-18 00:45:00,,0825.7,5.01,0.00,21.8,20.9,00.0,31.0,23.3,05.8,0000.0,0000.68,0000.35,0000.22
2021-12-18 00:46:00,,0825.8,5.00,0.00,21.8,21.1,00.0,31.0,23.4,05.8,0000.0,0000.63,0000.34,0000.22
2021-12-18 00:47:00,,0825.9,4.99,0.00,21.9,21.8,00.0,31.0,23.6,05.8,0000.0,0000.56,0000.33,0000.23
2021-12-18 00:48:00,,0825.8,5.00,0.00,22.0,22.7,00.0,31.0,24.0,05.7,0000.0,0001.47,0000.37,0000.23
2021-12-18 00:49:00,,0826.0,5.01,0.00,22.2,23.3,00.0,31.1,24.2,05.7,0000.0,0001.51,0000.37,0000.23
2021-12-18 00:50:00,,0825.7,4.99,0.00,22.3,23.0,00.0,31.1,24.2,05.6,0000.0,0001.54,0000.38,0000.23
2021-12-18 00:51:00,,0825.7,5.01,0.00,22.3,22.7,00.0,31.1,24.1,05.6,0000.0,0001.67,0000.39,0000.23
2021-12-18 00:52:00,,0825.7,5.00,0.00,22.2,22.4,00.0,31.1,24.0,05.5,0000.0,0001.74,0000.39,0000.24
2021-12-18 00:53:00,,0825.7,5.01,0.00,22.2,22.1,00.0,31.1,23.8,05.5,0000.0,0001.75,0000.39,0000.24
2021-12-18 00:54:00,,0825.7,4.99,0.00,22.2,21.9,00.0,31.2,23.8,05.5,0000.0,0001.75,0000.40,0000.24
2021-12-18 00:55:00,,0825.7,5.02,0.00,22.2,21.7,00.0,31.2,23.8,05.6,0000.0,0001.76,0000.40,0000.24
2021-12-18 00:56:00,,0825.7,4.98,0.00,22.1,21.6,00.0,31.2,23.8,05.6,0000.0,0001.74,0000.40,0000.25
2021-12-18 00:57:00,,0826.0,5.01,0.00,22.1,21.5,00.0,31.2,23.7,05.7,0000.0,0001.77,0000.41,0000.25
2021-12-18 00:58:00,,0825.9,5.00,0.00,22.1,21.4,00.0,31.1,23.6,05.6,0000.0,0001.77,0000.40,0000.25
2021-12-18 00:59:00,,0825.9,4.99,0.00,22.0,21.3,00.0,31.1,23.6,05.8,0000.0,0001.25,0000.38,0000.25
